Regional Weather Roundup
Issued by NWS

Home | Current Version | Previous Version | Text Only | Print | Product List | Glossary Off
Versions: 1 2 3 4 5 6 7 8 9 10 11 12 13 14 15 16 17 18 19 20 21 22 23 24 25 26 27 28 29 30 31 32 33 34 35 36 37 38 39 40 41 42 43 44 45 46 47 48 49 50

000
ASUS43 KLMK 030102
RWRKY
KENTUCKY REGIONAL WEATHER ROUNDUP
NATIONAL WEATHER SERVICE LOUISVILLE KY
800 PM EST MON MAR 02 2015

NOTE "FAIR" INDICATES FEW OR NO CLOUDS BELOW 12,000 FEET
WITH NO SIGNIFICANT WEATHER AND/OR OBSTRUCTIONS TO VISIBILITY.

KYZ001>023-026-027-061>063-070>075-030200-
WESTERN AND SOUTH CENTRAL KENTUCKY

CITY           SKY/WX    TMP DP  RH WIND       PRES   REMARKS
PADUCAH        CLOUDY    37  23  56 NE7       30.33F WCI  32
HENDERSON      CLEAR     32  23  69 N3        30.37F
OWENSBORO      PTCLDY    36  20  52 CALM      30.37S
HOPKINSVILLE   NOT AVBL
BOWLING GREEN  CLOUDY    39  21  48 NE6       30.36S WCI  35
GLASGOW        NOT AVBL
$$

KYZ024-025-028>034-038-045-046-053-030200-
NORTH CENTRAL KENTUCKY

CITY           SKY/WX    TMP DP  RH WIND       PRES   REMARKS
LOUISVILLE/SDF CLOUDY    36  19  50 NE9       30.39F WCI  29
LOUISVILLE/LOU CLOUDY    35  17  47 NE5       30.39F WCI  31
FORT KNOX      MOCLDY    34  19  55 NE6       30.34F WCI  29
$$

KYZ035>037-039>044-047>052-055>060-089>105-030200-
NORTHEAST KENTUCKY

CITY           SKY/WX    TMP DP  RH WIND       PRES   REMARKS
LEXINGTON      CLOUDY    31  21  66 NE9       30.39F WCI  23
COVINGTON      PTCLDY    31  15  52 E7        30.42S WCI  24
FRANKFORT      CLOUDY    32  20  61 E6        30.38F WCI  26
$$

KYZ054-064>069-076>088-106>120-030200-
SOUTHEAST KENTUCKY

CITY           SKY/WX    TMP DP  RH WIND       PRES   REMARKS
JACKSON        MOCLDY    35  19  52 NE3       30.36S
LONDON         FAIR      38  17  42 NE5       30.33F WCI  34
SOMERSET       NOT AVBL
MIDDLESBORO    PTCLDY    33  31  90 CALM      30.33F
MONTICELLO     PTCLDY    37  26  65 CALM      30.37R
$$




USA.gov is the U.S. government's official web portal to all federal, state and local government web resources and services.